Regional Weather Roundup
Issued by NWS Goodland, KS

Current Version | Previous Version | Text Only | Print | Product List | Glossary On
Versions: 1 2 3 4 5 6 7 8 9 10 11 12 13 14 15 16 17 18 19 20 21 22 23 24 25 26 27 28 29 30 31 32 33 34 35 36 37 38 39 40 41 42 43 44 45 46 47 48 49 50
000
ASUS43 KGLD 111908
RWRGLD

GOODLAND FORECAST AREA HOURLY WEATHER ROUNDUP
NATIONAL WEATHER SERVICE GOODLAND KS
1200 PM MST THU FEB 11 2016

...OFFICIAL OBSERVATIONS...

CITY           SKY/WX    TMP DP  RH WIND       PRES   REMARKS
GOODLAND KS    CLOUDY    55  27  34 SW18      30.09F
HILL CITY KS   CLOUDY    35  30  82 S8        30.17F
IMPERIAL NEB   SUNNY     51  29  42 W7        30.07F
MCCOOK NEB     SUNNY     37  31  78 SE7       30.10F
AKRON CO       CLOUDY    47  28  47 W13       30.12S
BURLINGTON CO  CLOUDY    50  28  42 W17       30.12S
LIMON CO       CLOUDY    44  26  49 NW3       30.16S
$$

...UNOFFICIAL OBSERVATIONS...

CITY           SKY/WX    TMP DP  RH WIND       PRES   REMARKS
COLBY KS       SUNNY     46  36  66 S9        30.10F
GOVE KS          N/A     52  32  46 MISG        N/A
LENORA KS        N/A     34  32  92 MISG        N/A
NORTON KS      CLOUDY    34  27  75 S13       30.12
SHARON SPRINGS   N/A     60  31  33 W20         N/A
KIT CARSON CO    N/A     59  26  28 MISG        N/A
YUMA CO          N/A     52  32  47 NW12        N/A
$$



USA.gov is the U.S. government's official web portal to all federal, state and local government web resources and services.